User: anonymous   Login
Location: Unspecified
(0.0000°N, 0.0000°E)
Time: 04:21:07
(UTC+00:00)
Language:

Vela 4A - Orbit

View from above orbital plane
View from above orbital plane
View from above satellite
View from above satellite

Ground track
Ground track

The orbit data is extracted from the following two-line orbital elements,

1 02765U 67040A   15062.99495448 -.00001469  00000-0  00000+0 0  9993
2 02765 005.6267 336.9697 4654090 201.8872 358.8331 00.21522902 37540
Epoch (UTC): 03 March 2015 23:52:44
Eccentricity: 0.4654090
inclination: 5.6267°
perigee height: 56498 km
apogee height: 165976 km
right ascension of ascending node: 336.9697°
argument of perigee: 201.8872°
revolutions per day: 0.21522902
mean anomaly at epoch: 358.8331°
orbit number at epoch: 3754

The dashed part of the orbit path shows where the satellite is in the earth's shadow,  

DLR